[[{"header":{"parameterUnit":"m.s-1","parameterCategory":1,"la1":30.2992,"la2":30.254,"lo1":-89.0895,"lo2":-89.0443,"dy":0.0025,"dx":0.0025,"nx":19,"ny":19,"refTime":"2026-05-08T03:00:00:Z","depth":0,"parameterNumber":2,"parameterNumberName":"U-component_of_WINDS"},"data":[0,0,0,-7.6969,-7.6972,-7.7081,-7.7081,-7.7256,-7.7258,0,0,0,0,0,0,0,0,0,0,0,-7.6961,-7.6963,-7.6969,-7.6973,-7.7081,-7.7081,-7.7256,-7.7258,0,0,0,0,0,0,0,0,0,0,0,-7.696,-7.6963,-7.6965,-7.6973,-7.7081,-7.7081,-7.7255,-7.716,0,0,0,0,0,0,0,0,0,0,-7.7048,-7.7065,-7.6962,-7.6965,-7.6974,-7.7081,-7.7081,-7.7155,-7.7166,-7.7223,0,-7.7282,0,-7.7273,-7.7272,-7.7273,0,0,0,-7.6954,-7.7056,-7.7063,-7.6966,-7.6975,-7.7081,-7.7027,-7.716,-7.7173,-7.7238,-7.7284,-7.7289,-7.7276,-7.7273,-7.7274,-7.7669,-7.7671,0,0,-7.6948,-7.6993,-7.7055,-7.7073,-7.7061,-7.7024,-7.703,-7.7168,-7.722,-7.7284,-7.7293,-7.7279,-7.7275,-7.7276,-7.7666,-7.767,0,0,0,-7.6943,-7.699,-7.6993,-7.7067,-7.7084,-7.7027,-7.7035,-7.7214,-7.7211,-7.7294,-7.7281,-7.7276,-7.7279,-7.7663,-7.7667,-7.7845,0,0,0,-7.6939,-7.6987,-7.6992,-7.702,-7.7082,-7.7151,-7.7079,-7.7202,-7.7216,-7.728,-7.7276,-7.7281,-7.766,-7.7665,-7.7833,-7.792,0,0,0,-7.6946,-7.6987,-7.7012,-7.7023,-7.7071,-7.7147,-7.7152,-7.7204,-7.7209,-7.7273,-7.7281,-7.7658,-7.7664,-7.7823,-7.7903,-7.8036,0,0,0,-7.6966,-7.7167,-7.7015,-7.7235,-7.7071,-7.7257,-7.7151,-7.7287,-7.7363,-7.7277,-7.7661,-7.7667,-7.782,-7.7893,-7.8026,-7.8155,-7.8214,0,0,-7.7245,-7.7203,-7.7328,-7.7195,-7.7421,-7.7237,-7.7487,-7.7514,-7.7478,-7.7607,-7.7616,-7.7837,-7.7902,-7.8034,-7.853,-7.8577,0,0,0,-7.7432,-7.7523,-7.7572,-7.7648,-7.7675,-7.7703,-7.7687,-7.7697,-7.7804,-7.7554,-7.792,-7.7958,-7.8033,-7.8092,-7.8132,-7.8193,-7.7697,-7.7696,-7.7696,-7.789,-7.7835,-7.8038,-7.7996,-7.8071,-7.8053,-7.8107,-7.8116,-7.8038,-7.8126,-7.8163,-7.8471,-7.8542,-7.8572,-7.8636,-7.8228,-7.8229,-7.8229,-7.823,-7.8293,-7.8412,-7.8304,-7.8462,-7.8402,-7.8534,-7.8523,-7.8464,-7.8576,-7.8438,-7.8501,-7.8354,-7.8625,-7.8678,-7.8242,-7.824,-7.8239,-7.8237,-7.8237,-7.8586,-7.8633,-7.8642,-7.8746,-7.8831,-7.8781,-7.8894,-7.8835,-7.878,-7.8843,-7.8875,-7.8871,-7.8859,-7.8863,-7.8864,-7.8865,-7.8866,-7.8867,-7.8867,-7.8885,-7.889,-7.8994,-7.9039,-7.9079,-7.9125,-7.9108,-7.9146,-7.9172,-7.9119,-7.9119,-7.9031,-7.8663,-7.8571,-7.8883,-7.8881,-7.8878,-7.8877,-7.8876,-7.931,-7.9205,-7.9365,-7.9406,-7.9453,-7.9541,-7.9465,-7.9546,-7.9569,-7.9626,-7.9525,-7.9263,-7.9215,-7.9183,-7.9106,-7.9538,-7.9538,-7.9538,-7.9538,-7.9556,-7.9527,-7.9676,-7.9745,-7.9805,-7.9753,-7.9933,-7.9923,-7.9894,-7.9904,-7.9833,-7.9727,-7.9697,-7.9666,-7.9623,-7.955,-8.0086,-8.0086,-8.0087,-7.9814,-7.9787,-7.9953,-7.9926,-7.9958,-7.9987,-8.0154,-8.0236,-8.0182,-8.0108,-7.991,-7.9887,-7.9714,-7.9661,-7.9581,-7.9516,-7.9381,0,0]},{"header":{"parameterUnit":"m.s-1","parameterCategory":1,"la1":30.2992,"la2":30.254,"lo1":-89.0895,"lo2":-89.0443,"dy":0.0025,"dx":0.0025,"nx":19,"ny":19,"refTime":"2026-05-08T03:00:00:Z","depth":0,"parameterNumber":3,"parameterNumberName":"V-component_of_WINDS"},"data":[0,0,0,-1.07,-1.0702,-1.0767,-1.0768,-1.0847,-1.0848,0,0,0,0,0,0,0,0,0,0,0,-1.0677,-1.0677,-1.07,-1.0702,-1.0767,-1.0768,-1.0847,-1.0848,0,0,0,0,0,0,0,0,0,0,0,-1.0677,-1.0677,-1.0678,-1.0702,-1.0767,-1.0768,-1.0847,-1.0799,0,0,0,0,0,0,0,0,0,0,-1.0736,-1.0711,-1.0677,-1.0678,-1.0702,-1.0767,-1.0768,-1.0797,-1.0802,-1.0815,0,-1.0825,0,-1.0837,-1.0853,-1.0853,0,0,0,-1.0705,-1.0706,-1.0727,-1.0678,-1.0703,-1.0767,-1.0739,-1.08,-1.0806,-1.0822,-1.0826,-1.0829,-1.0839,-1.0853,-1.0854,-1.0915,-1.0915,0,0,-1.0701,-1.0687,-1.0723,-1.0731,-1.072,-1.0736,-1.0741,-1.0804,-1.0807,-1.0826,-1.0831,-1.084,-1.0854,-1.0854,-1.0915,-1.0915,0,0,0,-1.0689,-1.0684,-1.0704,-1.0728,-1.074,-1.0738,-1.0743,-1.0805,-1.0812,-1.0832,-1.0841,-1.0854,-1.0855,-1.0915,-1.0915,-1.0907,0,0,0,-1.0687,-1.0677,-1.0702,-1.0694,-1.0738,-1.0773,-1.0743,-1.0808,-1.0815,-1.0841,-1.0854,-1.0856,-1.0914,-1.0915,-1.0907,-1.0905,0,0,0,-1.0674,-1.0676,-1.0684,-1.0693,-1.0721,-1.0772,-1.0783,-1.081,-1.0821,-1.0853,-1.0856,-1.0914,-1.0915,-1.0907,-1.0905,-1.0916,0,0,0,-1.0657,-1.0677,-1.0683,-1.071,-1.072,-1.0767,-1.0783,-1.0819,-1.0845,-1.0855,-1.0914,-1.0915,-1.0907,-1.0905,-1.0916,-1.0923,-1.0924,0,0,-1.0675,-1.0679,-1.0695,-1.0703,-1.0744,-1.0758,-1.0798,-1.0837,-1.0854,-1.0894,-1.0895,-1.0907,-1.0905,-1.0916,-1.0939,-1.094,0,0,0,-1.0696,-1.0708,-1.0722,-1.0746,-1.0775,-1.08,-1.0834,-1.0848,-1.0882,-1.0871,-1.0915,-1.0914,-1.0921,-1.0925,-1.0926,-1.0933,-1.0916,-1.0916,-1.0916,-1.0701,-1.072,-1.0748,-1.0775,-1.0798,-1.0832,-1.0853,-1.0878,-1.0892,-1.0902,-1.0914,-1.0925,-1.0929,-1.0929,-1.0936,-1.0919,-1.0919,-1.0919,-1.0919,-1.0728,-1.0747,-1.0763,-1.0796,-1.0816,-1.0845,-1.0878,-1.0887,-1.0917,-1.0918,-1.0925,-1.0924,-1.093,-1.0937,-1.0919,-1.0919,-1.0919,-1.0919,-1.0919,-1.0732,-1.0745,-1.0761,-1.0797,-1.0823,-1.085,-1.0877,-1.0896,-1.0913,-1.092,-1.0934,-1.0934,-1.0936,-1.0926,-1.0926,-1.0926,-1.0926,-1.0926,-1.0926,-1.073,-1.0749,-1.0769,-1.0801,-1.0818,-1.0843,-1.0877,-1.0896,-1.092,-1.0931,-1.0932,-1.0943,-1.0927,-1.0922,-1.0926,-1.0926,-1.0926,-1.0926,-1.0926,-1.0749,-1.0747,-1.0778,-1.0795,-1.0834,-1.0858,-1.0881,-1.0916,-1.0934,-1.0946,-1.0957,-1.0942,-1.0948,-1.0947,-1.0943,-1.0953,-1.0953,-1.0953,-1.0953,-1.0752,-1.0756,-1.0791,-1.0818,-1.0846,-1.0869,-1.0903,-1.093,-1.0958,-1.097,-1.0972,-1.0968,-1.0967,-1.0973,-1.0972,-1.0969,-1.0985,-1.0985,-1.0985,-1.0764,-1.0772,-1.0797,-1.0823,-1.0854,-1.0881,-1.0914,-1.0944,-1.0976,-1.0987,-1.098,-1.0979,-1.0973,-1.097,-1.098,-1.0978,-1.0972,0,0]}]]